Regional Weather Roundup
Issued by NWS

Home | Current Version | Previous Version | Text Only | Print | Product List | Glossary Off
Versions: 1 2 3 4 5 6 7 8 9 10 11 12 13 14 15 16 17 18 19 20 21 22 23 24 25 26 27 28 29 30 31 32 33 34 35 36 37 38 39 40 41 42 43 44 45 46 47 48 49 50

000
ASUS43 KLOT 182109
RWRIL

ILLINOIS REGIONAL WEATHER ROUNDUP
NATIONAL WEATHER SERVICE CHICAGO/ROMEOVILLE IL
400 PM CDT WED OCT 18 2017

NOTE: "FAIR" INDICATES FEW OR NO CLOUDS BELOW 12,000 FEET WITH NO
SIGNIFICANT WEATHER AND/OR OBSTRUCTIONS TO VISIBILITY.

* THESE STATIONS ARE NOT UNDER NWS QUALITY CONTROL. THEY ALSO MAY NOT
  REPORT WEATHER SUCH AS PRECIPITATION OR FOG.

ILZ001-002-007-009-015-016-024-182200-
NORTHWEST ILLINOIS

CITY           SKY/WX    TMP DP  RH WIND       PRES   REMARKS
MOLINE         SUNNY     74  44  34 SW15G23   29.98F
STERLING*      SUNNY     72  43  35 VRB5        N/A
SAVANNA*       SUNNY     73  45  36 S14G20    29.98F
$$

ILZ003-004-008-010-011-017-018-182200-
NORTH CENTRAL ILLINOIS

CITY           SKY/WX    TMP DP  RH WIND       PRES   REMARKS
ROCKFORD       MOSUNNY   71  41  33 S16G29    30.00F
FREEPORT*      SUNNY     70  44  39 S17G24    30.00F
ROCHELLE*      SUNNY     70  42  36 SW13G23   30.02F
DE KALB*       SUNNY     70  44  39 S22       30.03F
PERU*          SUNNY     71  40  33 S14G24    30.03F
$$

ILZ005-006-012>014-019>023-182200-
NORTHEAST ILLINOIS

CITY           SKY/WX    TMP DP  RH WIND       PRES   REMARKS
CHICAGO-OHARE  SUNNY     70  41  34 SW18G28   30.02F
CHICAGO-MIDWAY MOSUNNY   71  41  33 S17G28    30.04F
AURORA         SUNNY     71  41  33 S20G26    30.03F
LANSING*       SUNNY     69  46  42 S13       30.07F
JOLIET*        SUNNY     72  42  33 S17       30.05F
WAUKEGAN       SUNNY     71  44  37 S15G24    29.99F
DUPAGE AIRPORT SUNNY     70  42  36 S14G30    30.02F
KANKAKEE*      SUNNY     71  39  30 S14       30.09F
WHEELING       SUNNY     71  43  36 S20G25    30.03F
MORRIS*        SUNNY     73  40  30 S17G23    30.04F
ROMEOVILLE*    SUNNY     71  42  36 S16G24    30.04F
NORTHERLY ISL    N/A     70  38  31 S18         N/A
$$

LMZ740>746-182200-
SOUTHERN LAKE MICHIGAN

STATION/POSITION SKY/WX   TEMP    WIND        PRES    VSBY  WAVE
                          AIR SEA DIR/SP/G                  HT/PER
                          (F)     (DEG/KT/KT) (MB)    (MI)  (FT/S)
SOUTHERN BUOY              63 61  170/ 21/ 23 1016.5F         5/ 5
WILMETTE HARBOR            66 58  190/ 16/ 21   N/A           3/ 4
HARRISON CRIB              69     200/ 22/ 25   N/A
BURNHAM HARBOR             70     180/ 18/ 20   N/A
CALUMET HARBOR             69     170/ 14/ 20 1017.0F
BURNS HARBOR               68     200/ 17/ 22 1019.0S
MICHIGAN CITY              68     170/ 16/ 21   N/A
MICHIGAN CITY 6N           65 58  200/ 14/ 19   N/A           2/ 3
ST. JOSEPH                 64 58  200/ 12/ 16 1018.5          3/ 4
$$

ILZ025>027-034>036-040-047-049-050-058-095>099-182200-
WEST-CENTRAL ILLINOIS

CITY           SKY/WX    TMP DP  RH WIND       PRES   REMARKS
QUINCY         SUNNY     72  40  31 S14       30.04F
GALESBURG*     SUNNY     71  43  36 SW17      30.03S
MACOMB*        SUNNY     73  41  31 S10G20    30.05F
JACKSONVILLE*  SUNNY     72  42  34 S13G18    30.07F
PITTSFIELD*    SUNNY     73  43  33 S13       30.07F
$$

ILZ028>032-037-038-041>044-048-051>054-059>061-182200-
CENTRAL ILLINOIS

CITY           SKY/WX    TMP DP  RH WIND       PRES   REMARKS
PONTIAC        SUNNY     73  41  31 S20       30.07F
BLOOMINGTON    SUNNY     70  43  37 S21       30.08F
DECATUR        SUNNY     70  42  36 S13       30.11F
PEORIA         SUNNY     71  44  37 SW16G23   30.04F
LACON*         SUNNY     71  43  35 SW10G20   30.03F
LINCOLN*       SUNNY     73  44  36 S15G22    30.07F
SPRINGFIELD    SUNNY     73  44  35 S13G21    30.08F
TAYLORVILLE    SUNNY     72  43  34 S13G22    30.10F
$$

ILZ033-039-045-046-055>057-062-063-182200-
EAST-CENTRAL ILLINOIS

CITY           SKY/WX    TMP DP  RH WIND       PRES   REMARKS
CHAMPAIGN      SUNNY     72  39  30 S20       30.12S
DANVILLE*      SUNNY     70  43  37 S13       30.10F
RANTOUL*       SUNNY     72  44  36 S15G24    30.11S
MATTOON        SUNNY     69  47  45 S14G21    30.12F
PARIS*         SUNNY     70  47  44 S13       30.15S
$$

ILZ079-100>102-182200-
SOUTHWEST ILLINOIS

CITY           SKY/WX    TMP DP  RH WIND       PRES   REMARKS
ALTON          MOSUNNY   72  48  43 S12       30.10F
BELLEVILLE     SUNNY     73  43  33 S14       30.13
CAHOKIA*       SUNNY     76  42  29 S13       30.10S
SPARTA*        SUNNY     71  46  40 S10       30.14F
$$

ILZ064>066-069>071-074>076-080>082-084>086-088>090-092>094-182200-
SOUTH-CENTRAL ILLINOIS

CITY           SKY/WX    TMP DP  RH WIND       PRES   REMARKS
CARBONDALE     SUNNY     72  48  42 S14       30.16S
CAIRO*         SUNNY     72  48  43 S14       30.17S
EFFINGHAM*     SUNNY     71  46  40 SE8G20    30.14F
MARION         SUNNY     73  48  40 S12       30.16F
MT. VERNON     SUNNY     71  49  45 S16       30.15F
CENTRALIA*     SUNNY     73  48  41 S15       30.13S
SALEM*         SUNNY     72  45  38 S10G20    30.14S
METROPOLIS*    SUNNY     73  47  39 S10       30.18F
$$

ILZ067-068-072-073-078-083-087-091-182200-
SOUTHEAST ILLINOIS

CITY           SKY/WX    TMP DP  RH WIND       PRES   REMARKS
LAWRENCEVILLE  SUNNY     71  47  42 S13       30.17F
FLORA*         SUNNY     72  48  42 S15       30.15F
FAIRFIELD*     SUNNY     71  46  40 S8        30.15F
HARRISBURG*    SUNNY     73  47  39 S10       30.17S
ROBINSON*      SUNNY     71  44  38 S14       30.17F
CARMI*         SUNNY     73  46  38 S14       30.16F
$$

ABBREVIATIONS USED IN REMARKS
   TC - TEMPERATURE IN CELSIUS
  WCI - WIND CHILL INDEX
   HX - HEAT INDEX
  VSB - VISIBILITY
$$





USA.gov is the U.S. government's official web portal to all federal, state and local government web resources and services.